W2DEN Weather Reports


Display with metric or nautical units.
time (UTC)temp
F
wind
direction
speed
MPH
gust
MPH
rain 1hr
in
rain 24hr
in
rain mn
in
humidity
%
barometer
mb
20260506044217 58 0.0 0.0 0.00 0.00 0.00 91 1016.4
20260506043217 58 0.0 0.0 0.00 0.00 0.00 90 1016.4
20260506042218 58 0.0 0.0 0.00 0.00 0.00 90 1016.4
20260506041217 58 0.0 0.0 0.00 0.00 0.00 90 1016.6
20260506040237 59 0.0 0.0 0.00 0.00 0.00 89 1016.5
20260506035217 59 0.0 0.0 0.00 0.00 0.00 88 1016.6
20260506034216 59 0.0 0.0 0.00 0.00 0.00 87 1016.6
20260506033218 60 0.0 0.0 0.00 0.00 0.00 87 1016.5
20260506032216 60 0.0 0.0 0.00 0.00 0.00 86 1016.6
20260506031216 60 0.0 0.0 0.00 0.00 0.00 84 1016.7
20260506030216 61 0.0 0.0 0.00 0.00 0.00 83 1016.6
20260506025216 61 0.0 0.0 0.00 0.00 0.00 83 1016.6
20260506024257 62 0.0 0.0 0.00 0.00 0.00 82 1016.5
20260506023216 62 0.0 0.0 0.00 0.00 0.00 81 1016.4
20260506022216 63 0.0 0.0 0.00 0.00 0.00 79 1016.4
20260506021216 63 0.0 0.0 0.00 0.00 0.00 78 1016.2
20260506020236 63 0.0 0.0 0.00 0.00 0.00 77 1016.2
20260506015216 64 0.0 0.0 0.00 0.00 0.00 76 1016.3
20260506014216 64 0.0 0.0 0.00 0.00 0.00 75 1016.2
20260506013216 64 0.0 0.0 0.00 0.00 0.00 75 1016.1
20260506012236 65 0.0 0.0 0.00 0.00 0.00 74 1016.0
20260506011216 65 0.0 0.0 0.00 0.00 0.00 72 1015.9
20260506010216 66 0.0 0.0 0.00 0.00 0.00 71 1016.0
20260506005216 66 0.0 0.0 0.00 0.00 0.00 69 1015.8
20260506004216 67 0.0 0.0 0.00 0.00 0.00 67 1015.7
20260506003216 68 0.0 0.0 0.00 0.00 0.00 66 1015.5
20260506002236 69 0.0 0.0 0.00 0.00 0.00 63 1015.5
20260506001216 70 0.0 0.0 0.00 0.00 0.00 61 1015.4
20260506000216 70 0.0 0.0 0.00 0.00 0.00 60 1015.3
20260505235236 70 0.0 1.0 0.00 0.00 0.00 59 1015.5
20260505234236 71 0.0 1.0 0.00 0.00 0.00 59 1015.5
20260505233216 72 0.0 1.0 0.00 0.00 0.00 59 1015.5
20260505232216 72 0.0 0.0 0.00 0.00 0.00 59 1015.5
20260505231216 73 45 1.0 2.0 0.00 0.00 0.00 59 1015.4
20260505230216 73 0.0 1.0 0.00 0.00 0.00 59 1015.5
20260505225216 74 135 1.0 1.0 0.00 0.00 0.00 58 1015.3
20260505224216 74 135 1.0 2.0 0.00 0.00 0.00 58 1015.5
20260505223236 75 0.0 0.0 0.00 0.00 0.00 58 1015.4
20260505222216 75 158 1.0 2.0 0.00 0.00 0.00 56 1015.4
20260505221216 76 158 1.0 2.0 0.00 0.00 0.00 54 1015.5
20260505220216 76 135 1.0 2.0 0.00 0.00 0.00 55 1015.4
20260505215216 77 0.0 2.0 0.00 0.00 0.00 57 1015.3
20260505214216 78 158 2.0 3.0 0.00 0.00 0.00 53 1015.4
20260505213236 79 113 1.0 4.0 0.00 0.00 0.00 53 1015.4
20260505212216 79 135 2.0 3.0 0.00 0.00 0.00 54 1015.4
20260505211217 80 68 2.0 4.0 0.00 0.00 0.00 52 1015.3
20260505210216 80 0.0 2.0 0.00 0.00 0.00 52 1015.3
20260505205216 81 158 1.0 2.0 0.00 0.00 0.00 48 1015.5
20260505204236 82 158 1.0 1.0 0.00 0.00 0.00 48 1015.5
20260505203216 82 158 2.0 2.0 0.00 0.00 0.00 49 1015.3
20260505202216 82 158 1.0 3.0 0.00 0.00 0.00 49 1015.4
20260505201216 82 158 1.0 2.0 0.00 0.00 0.00 46 1015.5
20260505200216 82 180 2.0 3.0 0.00 0.00 0.00 44 1015.6
20260505195216 83 158 2.0 3.0 0.00 0.00 0.00 44 1015.6
20260505194216 84 203 1.0 3.0 0.00 0.00 0.00 46 1015.9
20260505193236 83 158 1.0 2.0 0.00 0.00 0.00 45 1015.9
20260505192216 84 0.0 1.0 0.00 0.00 0.00 43 1016.1
20260505191216 84 158 1.0 2.0 0.00 0.00 0.00 45 1016.2
20260505190216 84 0.0 1.0 0.00 0.00 0.00 44 1016.3
20260505185215 84 23 1.0 3.0 0.00 0.00 0.00 44 1016.6
20260505184216 86 158 1.0 2.0 0.00 0.00 0.00 41 1016.7
20260505183216 83 0.0 0.0 0.00 0.00 0.00 41 1016.9
20260505182216 84 0.0 1.0 0.00 0.00 0.00 38 1016.8
20260505181216 83 23 1.0 2.0 0.00 0.00 0.00 38 1016.7
20260505180237 84 23 1.0 2.0 0.00 0.00 0.00 38 1016.6
20260505175216 84 23 1.0 3.0 0.00 0.00 0.00 35 1016.7
20260505174216 84 0 1.0 2.0 0.00 0.00 0.00 39 1016.8
20260505173217 84 0 1.0 1.0 0.00 0.00 0.00 41 1016.8
20260505172250 83 0.0 0.0 0.00 0.00 0.00 41 1017.0
20260505171416 82 68 1.0 2.0 0.00 0.00 0.00 41 1016.9
20260505170416 82 68 1.0 2.0 0.00 0.00 0.00 40 1017.0
20260505165436 81 158 2.0 3.0 0.00 0.00 0.00 41 1017.2
20260505164416 82 23 1.0 2.0 0.00 0.00 0.00 39 1017.2
20260505163456 82 135 3.0 6.0 0.00 0.00 0.00 38 1017.2
20260505162415 82 45 2.0 4.0 0.00 0.00 0.00 42 1017.3
20260505161416 82 68 1.0 3.0 0.00 0.00 0.00 43 1017.5
20260505160417 82 23 1.0 2.0 0.00 0.00 0.00 43 1017.6
20260505152418 80 23 1.0 2.0 0.00 0.00 0.00 47 1017.8
20260505151418 79 23 1.0 2.0 0.00 0.00 0.00 46 1017.9
20260505150418 79 23 1.0 2.0 0.00 0.00 0.00 46 1017.9
20260505140418 75 0.0 1.0 0.00 0.00 0.00 61 1017.7
20260505124417 62 0.0 0.0 0.00 0.00 0.00 88 1017.6
20260505123418 60 0.0 0.0 0.00 0.00 0.00 91 1017.6
20260505122438 58 0.0 0.0 0.00 0.00 0.00 95 1017.5
20260505121417 56 0.0 0.0 0.00 0.00 0.00 97 1017.6
20260505120417 53 0.0 0.0 0.00 0.00 0.00 96 1017.5
20260505115418 51 0.0 0.0 0.00 0.00 0.00 96 1017.4
20260505114418 51 0.0 0.0 0.00 0.00 0.00 96 1017.3
20260505113436 50 0.0 0.0 0.00 0.00 0.00 96 1017.2
20260505112417 50 0.0 0.0 0.00 0.00 0.00 96 1017.0
20260505111418 49 0.0 0.0 0.00 0.00 0.00 96 1016.9
20260505110417 49 0.0 0.0 0.00 0.00 0.00 96 1016.8
20260505101417 49 0.0 0.0 0.00 0.00 0.00 95 1016.6
20260505100417 49 0.0 0.0 0.00 0.00 0.00 95 1016.4
20260505095417 49 0.0 0.0 0.00 0.00 0.00 95 1016.4
20260505094417 50 0.0 0.0 0.00 0.00 0.00 95 1016.5
20260505093417 50 0.0 0.0 0.00 0.00 0.00 95 1016.4
20260505092417 50 0.0 0.0 0.00 0.00 0.00 95 1016.4
20260505091418 50 0.0 0.0 0.00 0.00 0.00 95 1016.4
20260505090417 50 0.0 0.0 0.00 0.00 0.00 95 1016.4
20260505085418 50 0.0 0.0 0.00 0.00 0.00 95 1016.3
20260505084418 51 0.0 0.0 0.00 0.00 0.00 95 1016.4
20260505083417 51 0.0 0.0 0.00 0.00 0.00 95 1016.4
20260505082417 51 0.0 0.0 0.00 0.00 0.00 94 1016.1
20260505081417 51 0.0 0.0 0.00 0.00 0.00 94 1016.1
20260505080508 52 0.0 0.0 0.00 0.00 0.00 95 1016.1
20260505080338 52 0.0 0.0 0.00 0.00 0.00 95 1016.1
20260505075317 52 0.0 0.0 0.00 0.00 0.00 94 1015.9
20260505074317 52 0.0 0.0 0.00 0.00 0.00 94 1015.9
20260505073317 52 0.0 0.0 0.00 0.00 0.00 94 1015.9
20260505072317 53 0.0 0.0 0.00 0.00 0.00 94 1015.9
20260505071318 53 0.0 0.0 0.00 0.00 0.00 94 1015.9
20260505070318 53 0.0 0.0 0.00 0.00 0.00 94 1015.9
20260505065319 53 0.0 0.0 0.00 0.00 0.00 94 1015.9
20260505064319 53 0.0 0.0 0.00 0.00 0.00 94 1015.9
20260505063318 53 0.0 0.0 0.00 0.00 0.00 94 1016.0
20260505062317 53 0.0 0.0 0.00 0.00 0.00 93 1016.0
20260505061318 53 0.0 0.0 0.00 0.00 0.00 93 1016.1
20260505060318 53 0.0 0.0 0.00 0.00 0.00 93 1016.4
20260505055339 54 0.0 0.0 0.00 0.00 0.00 93 1016.5
20260505054318 54 0.0 0.0 0.00 0.00 0.00 93 1016.6
20260505053318 54 0.0 0.0 0.00 0.00 0.00 93 1016.7
20260505052318 54 0.0 0.0 0.00 0.00 0.00 93 1016.9
20260505051318 53 0.0 0.0 0.00 0.00 0.00 92 1017.0
20260505050318 54 0.0 0.0 0.00 0.00 0.00 91 1017.1